Simultaneous Nadir Overpasses (SNOs) Predictions

Prediction of SNOs between GOES-15 and NPP Satellite Orbit:

Table of predicted SNOs for the next 14.0 days since TLE Epoch: 3/2/2024
Index Date Time (GOES-15) GOES-15 Lat,Lon NPP Lat,Lon Distance(km) Time Diff (sec)
1 03/02/2024 09:33:59 -0.04, 61.32 -0.84, 57.66 417.16 80
2 03/03/2024 09:17:53 -0.04, 61.31 0.17, 62.19 100.26 80
3 03/04/2024 21:39:39 0.05, 61.23 1.01, 56.93 490.75 80
4 03/05/2024 21:18:14 0.05, 61.23 -0.01, 61.46 26.10 80
5 03/08/2024 09:21:23 -0.06, 61.31 -0.18, 60.71 69.18 80
6 03/09/2024 09:05:17 -0.06, 61.32 0.84, 65.24 447.59 80
7 03/10/2024 21:27:04 0.06, 61.24 0.34, 59.98 143.99 80
8 03/11/2024 21:05:38 0.06, 61.24 -0.69, 64.51 372.55 80
9 03/13/2024 09:30:12 -0.06, 61.33 -0.51, 59.22 240.04 80
10 03/14/2024 09:08:46 -0.06, 61.33 0.46, 63.76 276.33 80
11 03/15/2024 21:33:12 0.06, 61.26 0.70, 58.50 315.95 80
